Orbital elements of COSMOS 970 DEB
| Launched | 20 December 1977 |
| Flight ended | – |
| Launch site | Tyuratam Missile and Space Center, Kazakhstan (Also known as Baikonur Cosmodrome) |
| Owner | Commonwealth of Independent States (former USSR) |
| NORAD ID | 14445 |
| Date fetched |
Epoch osculation |
Inc. [°] |
Ecc. | RA asc node [hr] |
Arg Peri. [°] |
Mean anom [°] |
Mean motion [rev/day] |
Abs. mag |
| Date fetched |
Epoch osculation |
Inc. [°] |
Ecc. | RA asc node [hr] |
Arg Peri. [°] |
Mean anom [°] |
Mean motion [rev/day] |
Abs. mag |
| 2026 May 03 17:57 | 2026 Apr 30 10:30:20 | 66.4614 | 0.00354 | 23.4368 | 139.6590 | 220.7159 | 14.67028 | – |
| 2026 May 02 17:57 | 2026 Apr 30 10:30:20 | 66.4614 | 0.00354 | 23.4368 | 139.6590 | 220.7159 | 14.67028 | – |
| 2026 May 01 17:56 | 2026 Apr 30 10:30:20 | 66.4614 | 0.00354 | 23.4368 | 139.6590 | 220.7159 | 14.67028 | – |
| 2026 Apr 30 17:56 | 2026 Apr 30 10:30:20 | 66.4614 | 0.00354 | 23.4368 | 139.6590 | 220.7159 | 14.67028 | – |
| 2026 Apr 29 17:57 | 2026 Apr 24 12:08:51 | 66.4609 | 0.00353 | 0.5451 | 144.6282 | 220.7159 | 14.67028 | – |
| 2026 Apr 28 17:56 | 2026 Apr 24 12:08:51 | 66.4609 | 0.00353 | 0.5451 | 144.6282 | 220.7159 | 14.67028 | – |
| 2026 Apr 27 17:58 | 2026 Apr 24 12:08:51 | 66.4609 | 0.00353 | 0.5451 | 144.6282 | 220.7159 | 14.67028 | – |
| 2026 Apr 26 17:58 | 2026 Apr 24 12:08:51 | 66.4609 | 0.00353 | 0.5451 | 144.6282 | 220.7159 | 14.67028 | – |
| 2026 Apr 25 17:58 | 2026 Apr 24 12:08:51 | 66.4609 | 0.00353 | 0.5451 | 144.6282 | 220.7159 | 14.67028 | – |
| 2026 Apr 24 17:59 | 2026 Apr 24 12:08:51 | 66.4609 | 0.00353 | 0.5451 | 144.6282 | 220.7159 | 14.67028 | – |
| 2026 Apr 23 17:57 | 2026 Apr 19 04:30:03 | 66.4614 | 0.00351 | 1.5387 | 149.5039 | 220.7159 | 14.67028 | – |
| 2026 Apr 22 17:57 | 2026 Apr 19 04:30:03 | 66.4614 | 0.00351 | 1.5387 | 149.5039 | 220.7159 | 14.67028 | – |
| 2026 Apr 21 17:57 | 2026 Apr 19 04:30:03 | 66.4614 | 0.00351 | 1.5387 | 149.5039 | 220.7159 | 14.67028 | – |
| 2026 Apr 20 17:57 | 2026 Apr 19 04:30:03 | 66.4614 | 0.00351 | 1.5387 | 149.5039 | 220.7159 | 14.67028 | – |
| 2026 Apr 19 17:58 | 2026 Apr 19 04:30:03 | 66.4614 | 0.00351 | 1.5387 | 149.5039 | 220.7159 | 14.67028 | – |
| 2026 Apr 18 17:56 | 2026 Apr 13 06:06:45 | 66.4605 | 0.00351 | 2.6468 | 155.2232 | 220.7159 | 14.67028 | – |
| 2026 Apr 16 17:57 | 2026 Apr 13 06:06:45 | 66.4605 | 0.00351 | 2.6468 | 155.2232 | 220.7159 | 14.67028 | – |
| 2026 Apr 14 17:57 | 2026 Apr 13 06:06:45 | 66.4605 | 0.00351 | 2.6468 | 155.2232 | 220.7159 | 14.67028 | – |
| 2026 Apr 13 17:57 | 2026 Apr 13 06:06:45 | 66.4605 | 0.00351 | 2.6468 | 155.2232 | 220.7159 | 14.67028 | – |
| 2026 Apr 12 17:57 | 2026 Apr 08 06:37:42 | 66.4610 | 0.00351 | 3.5765 | 160.1150 | 220.7159 | 14.67028 | – |
| 2026 Apr 11 17:57 | 2026 Apr 08 06:37:42 | 66.4610 | 0.00351 | 3.5765 | 160.1150 | 220.7159 | 14.67028 | – |
| 2026 Apr 10 17:58 | 2026 Apr 08 06:37:42 | 66.4610 | 0.00351 | 3.5765 | 160.1150 | 220.7159 | 14.67028 | – |
| 2026 Apr 09 18:01 | 2026 Apr 08 06:37:42 | 66.4610 | 0.00351 | 3.5765 | 160.1150 | 220.7159 | 14.67028 | – |
| 2026 Apr 08 17:57 | 2026 Apr 08 06:37:42 | 66.4610 | 0.00351 | 3.5765 | 160.1150 | 220.7159 | 14.67028 | – |
| 2026 Apr 07 17:57 | 2026 Apr 02 04:56:07 | 66.4604 | 0.00355 | 4.7097 | 165.5790 | 220.7159 | 14.67028 | – |
| 2026 Apr 06 17:57 | 2026 Apr 02 04:56:07 | 66.4604 | 0.00355 | 4.7097 | 165.5790 | 220.7159 | 14.67028 | – |